Location: Unspecified
(42.3650°N, 71.1030°W)
Time: 14:43:48
(UTC+00:00)

BREEZE-M DEB (TANK) - Pass Details

Date: 02 March 2024
Orbit: 414 x 13825 km, 45.9° (Epoch: 18 April)

Event Time Altitude Azimuth Distance (km) Brightness Sun altitude
Rises 23:15:59 0° 289° (WNW) 2,825 7.5 -8.1°
Reaches altitude 10° 23:17:27 10° 290° (WNW) 2,189 6.7 -8.4°
Maximum altitude 23:21:59 80° 18° (NNE) 1,258 4.1 -9.3°
Enters shadow 23:38:01 11° 107° (ESE) 7,109 7.3 -12.2°
